Terug naar catalogus

STARLINK-4352

ActiefCommunicatieSSO
NORAD 53047·PAYLOAD·🇺🇸 United States

Gelanceerd Jul 11, 2022 vanaf Vandenberg Space Force Base

Loading…

Volgende Passages (komende 24 uur)

TLE

VersSource: CelesTrak SupGP

Epoch: Sep 15, 2026, 02:04 UTC

1 53047C 22077E   26258.08659722 -.00071857  00000+0 -22305-2 0  2580
2 53047  97.2855  73.0020 0001397  92.2107 151.4748 15.33477695    11

Volg STARLINK-4352 in realtime met AllMySat

Download on the App Store